Meteo pe oră la Dzierzazenko

Astăzi, 3 Martie, Miercuri

Timp Temperatura Precipitaţii Vânt Presiune Umiditate
00:00 +1°C° 0 mm 0 m/s 763 mmHg 89%
01:00 +1°C° 0 mm 0 m/s 762 mmHg 90%
02:00 +1°C° 0 mm 0 m/s 762 mmHg 90%
03:00 +2°C° 0 mm 1 m/s 761 mmHg 90%
04:00 +2°C° 0 mm 1 m/s 761 mmHg 90%
05:00 +2°C° 0 mm 1 m/s 761 mmHg 89%
06:00 +2°C° 0 mm 1 m/s 761 mmHg 89%
07:00 +2°C° 0 mm 1 m/s 760 mmHg 88%
08:00 +4°C° 0 mm 1 m/s 760 mmHg 79%
09:00 +6°C° 0 mm 1 m/s 760 mmHg 71%
10:00 +6°C° 0 mm 2 m/s 760 mmHg 62%
11:00 +8°C° 0 mm 2 m/s 759 mmHg 60%
12:00 +9°C° 0 mm 2 m/s 759 mmHg 58%
13:00 +10°C° 0 mm 2 m/s 758 mmHg 56%
14:00 +10°C° 0 mm 2 m/s 758 mmHg 58%
15:00 +10°C° 0 mm 2 m/s 757 mmHg 61%
16:00 +10°C° 0 mm 2 m/s 756 mmHg 63%
17:00 +8°C° 0 mm 2 m/s 756 mmHg 69%
18:00 +7°C° 0 mm 2 m/s 755 mmHg 75%
19:00 +4°C° 0 mm 3 m/s 754 mmHg 81%
20:00 +4°C° 0 mm 3 m/s 754 mmHg 84%
21:00 +4°C° 0 mm 3 m/s 753 mmHg 87%
22:00 +3°C° 0 mm 3 m/s 752 mmHg 90%
23:00 +3°C° 0 mm 3 m/s 752 mmHg 91%

Mâine, 4 Martie, Joi

Timp Temperatura Precipitaţii Vânt Presiune Umiditate
00:00 +4°C° 0 mm 3 m/s 752 mmHg 92%
01:00 +4°C° 0 mm 3 m/s 751 mmHg 92%
02:00 +4°C° 0 mm 3 m/s 751 mmHg 93%
03:00 +4°C° 0 mm 4 m/s 750 mmHg 93%
04:00 +4°C° 0 mm 4 m/s 749 mmHg 94%
05:00 +4°C° 0 mm 4 m/s 749 mmHg 92%
06:00 +2°C° 0 mm 5 m/s 749 mmHg 89%
07:00 +2°C° 0 mm 5 m/s 749 mmHg 87%
08:00 +1°C° 0 mm 5 m/s 749 mmHg 86%
09:00 +1°C° 0 mm 5 m/s 749 mmHg 85%
10:00 0°C° 0 mm 5 m/s 749 mmHg 84%
11:00 0°C° 0 mm 5 m/s 749 mmHg 82%
12:00 +1°C° 0 mm 4 m/s 749 mmHg 81%
13:00 +1°C° 0 mm 4 m/s 749 mmHg 79%
14:00 +1°C° 0 mm 4 m/s 749 mmHg 80%
15:00 +1°C° 0 mm 4 m/s 749 mmHg 80%
16:00 +1°C° 0 mm 4 m/s 749 mmHg 81%
17:00 0°C° 0.1 mm 4 m/s 749 mmHg 83%
18:00 -1°C° 0.1 mm 4 m/s 750 mmHg 85%
19:00 -2°C° 0.1 mm 5 m/s 750 mmHg 88%
20:00 -2°C° 0 mm 4 m/s 750 mmHg 87%
21:00 -2°C° 0 mm 3 m/s 751 mmHg 86%
22:00 -2°C° 0 mm 3 m/s 751 mmHg 85%
23:00 -2°C° 0 mm 3 m/s 751 mmHg 84%

Poimâine, 5 Martie, Vineri

Timp Temperatura Precipitaţii Vânt Presiune Umiditate
00:00 -4°C° 0 mm 3 m/s 751 mmHg 83%
01:00 -4°C° 0 mm 3 m/s 752 mmHg 83%
02:00 -3°C° 0 mm 2 m/s 752 mmHg 81%
03:00 -3°C° 0 mm 2 m/s 752 mmHg 80%
04:00 -3°C° 0 mm 2 m/s 752 mmHg 79%
05:00 -3°C° 0 mm 2 m/s 752 mmHg 77%
06:00 -3°C° 0 mm 2 m/s 753 mmHg 75%
07:00 -2°C° 0 mm 2 m/s 753 mmHg 73%
08:00 -1°C° 0 mm 3 m/s 753 mmHg 65%
09:00 0°C° 0 mm 3 m/s 754 mmHg 56%
10:00 +1°C° 0 mm 3 m/s 754 mmHg 47%
11:00 +1°C° 0.1 mm 4 m/s 754 mmHg 45%
12:00 +1°C° 0.1 mm 4 m/s 755 mmHg 42%
13:00 +3°C° 0.1 mm 4 m/s 755 mmHg 40%
14:00 +1°C° 0.1 mm 4 m/s 755 mmHg 43%
15:00 +1°C° 0.1 mm 5 m/s 755 mmHg 46%
16:00 0°C° 0.1 mm 5 m/s 755 mmHg 49%
17:00 -1°C° 0 mm 5 m/s 756 mmHg 57%
18:00 -2°C° 0 mm 4 m/s 756 mmHg 65%
19:00 -2°C° 0 mm 3 m/s 757 mmHg 73%
20:00 -4°C° 0 mm 3 m/s 758 mmHg 75%
21:00 -4°C° 0 mm 3 m/s 758 mmHg 76%
22:00 -4°C° 0 mm 3 m/s 759 mmHg 78%
23:00 -4°C° 0 mm 3 m/s 759 mmHg 76%

6 Martie, Sâmbătă

Timp Temperatura Precipitaţii Vânt Presiune Umiditate
00:00 -3°C° 0 mm 2 m/s 759 mmHg 75%
01:00 -3°C° 0 mm 2 m/s 760 mmHg 73%
02:00 -3°C° 0 mm 2 m/s 760 mmHg 72%
03:00 -3°C° 0 mm 2 m/s 760 mmHg 71%
04:00 -3°C° 0 mm 2 m/s 760 mmHg 70%
05:00 -3°C° 0 mm 2 m/s 760 mmHg 69%
06:00 -3°C° 0 mm 2 m/s 761 mmHg 69%
07:00 -3°C° 0 mm 2 m/s 761 mmHg 69%
08:00 -2°C° 0 mm 2 m/s 761 mmHg 61%
09:00 0°C° 0 mm 3 m/s 761 mmHg 53%
10:00 0°C° 0 mm 4 m/s 761 mmHg 44%
11:00 +1°C° 0 mm 4 m/s 761 mmHg 42%
12:00 +1°C° 0 mm 4 m/s 761 mmHg 41%
13:00 +2°C° 0 mm 5 m/s 761 mmHg 39%
14:00 +1°C° 0 mm 5 m/s 760 mmHg 39%
15:00 +1°C° 0 mm 5 m/s 760 mmHg 40%
16:00 +1°C° 0 mm 5 m/s 760 mmHg 40%
17:00 0°C° 0 mm 5 m/s 759 mmHg 45%
18:00 -1°C° 0 mm 5 m/s 759 mmHg 49%
19:00 -2°C° 0 mm 4 m/s 758 mmHg 54%
20:00 -2°C° 0 mm 5 m/s 758 mmHg 55%
21:00 -2°C° 0 mm 5 m/s 758 mmHg 55%
22:00 -2°C° 0 mm 5 m/s 758 mmHg 56%
23:00 -2°C° 0 mm 5 m/s 757 mmHg 59%

7 Martie, Duminică

Timp Temperatura Precipitaţii Vânt Presiune Umiditate
00:00 -3°C° 0 mm 6 m/s 757 mmHg 63%
01:00 -3°C° 0 mm 6 m/s 756 mmHg 66%
02:00 -3°C° 0 mm 6 m/s 756 mmHg 71%
03:00 -3°C° 0 mm 6 m/s 755 mmHg 75%
04:00 -4°C° 0 mm 6 m/s 755 mmHg 80%
05:00 -3°C° 0 mm 7 m/s 755 mmHg 80%
06:00 -3°C° 0 mm 7 m/s 754 mmHg 81%
07:00 -3°C° 0 mm 7 m/s 754 mmHg 82%
08:00 -3°C° 0 mm 7 m/s 754 mmHg 81%
09:00 -3°C° 0 mm 7 m/s 754 mmHg 80%
10:00 -2°C° 0 mm 7 m/s 754 mmHg 79%
11:00 -2°C° 0 mm 7 m/s 754 mmHg 76%
12:00 -1°C° 0 mm 7 m/s 753 mmHg 73%
13:00 -1°C° 0 mm 7 m/s 753 mmHg 70%
14:00 -1°C° 0 mm 7 m/s 753 mmHg 72%
15:00 -1°C° 0 mm 6 m/s 752 mmHg 73%
16:00 -1°C° 0 mm 6 m/s 752 mmHg 75%
17:00 -2°C° 0 mm 6 m/s 751 mmHg 79%
18:00 -1°C° 0 mm 5 m/s 751 mmHg 83%
19:00 -2°C° 0 mm 5 m/s 751 mmHg 88%
20:00 -2°C° 0 mm 5 m/s 750 mmHg 87%
21:00 -2°C° 0 mm 5 m/s 750 mmHg 87%
22:00 -2°C° 0 mm 5 m/s 750 mmHg 87%
23:00 -2°C° 0 mm 5 m/s 750 mmHg 87%

8 Martie, Luni

Timp Temperatura Precipitaţii Vânt Presiune Umiditate
00:00 -2°C° 0 mm 5 m/s 749 mmHg 86%
01:00 -3°C° 0 mm 6 m/s 749 mmHg 85%
02:00 -2°C° 0.2 mm 5 m/s 749 mmHg 88%
03:00 -2°C° 0.2 mm 5 m/s 749 mmHg 91%
04:00 -2°C° 0.2 mm 5 m/s 749 mmHg 93%
05:00 -2°C° 0.3 mm 4 m/s 749 mmHg 93%
06:00 -3°C° 0.3 mm 4 m/s 750 mmHg 92%
07:00 -2°C° 0.3 mm 3 m/s 750 mmHg 91%
08:00 -1°C° 0 mm 3 m/s 751 mmHg 81%
09:00 0°C° 0 mm 3 m/s 751 mmHg 71%
10:00 +1°C° 0 mm 3 m/s 752 mmHg 61%
11:00 +1°C° 0 mm 3 m/s 752 mmHg 60%
12:00 +2°C° 0 mm 3 m/s 753 mmHg 59%
13:00 +2°C° 0 mm 3 m/s 753 mmHg 58%
14:00 0°C° 0.1 mm 4 m/s 753 mmHg 61%
15:00 0°C° 0.1 mm 4 m/s 754 mmHg 63%
16:00 -1°C° 0.1 mm 5 m/s 754 mmHg 66%
17:00 -2°C° 0 mm 4 m/s 754 mmHg 70%
18:00 -4°C° 0 mm 4 m/s 755 mmHg 73%
19:00 -5°C° 0 mm 3 m/s 755 mmHg 77%
20:00 -5°C° 0 mm 3 m/s 756 mmHg 77%
21:00 -6°C° 0 mm 3 m/s 757 mmHg 77%
22:00 -6°C° 0 mm 3 m/s 757 mmHg 76%
23:00 -6°C° 0 mm 3 m/s 757 mmHg 74%
Arată mai mult

Formular de consimțământ

Meteoprog și furnizorii noștri de servicii pot stoca și accesa date personale, precum cookies, identificatori de dispozitiv sau alte tehnologii similare pe dispozitivul dumneavoastră și procesa astfel de date pentru a personaliza conținutul și reclamele, dar și pentru a oferi caracteristici de social media și pentru a analiza traficul.

  • Stocarea și/sau accesarea informațiilor pe dispozitivul dumneavoastră

    Cookies, identificatori de dispozitiv sau alte informații pot fi stocate sau accesate pe dispozitiv în scopurile indicate mai sus.

  • Reclame și conținut personalizat, evaluarea reclamelor și a conținutului, informații despre audiențe și dezvoltarea produselor

    Reclamele și conținutul pot fi personalizate pe baza unui profil. Pot fi adăugate date suplimentare pentru a personaliza mai bine reclamele și conținutul. Performanța reclamelor și conținutului poate fi măsurată. Pot fi obținute informații despre utilizatorii care au văzut reclamele și conținutul. Aceste date pot fi utilizate pentru a dezvolta sau îmbunătăți experiența utilizatorilor, sistemele și software-ul.

Dând clic pe ‘Sunt de acord’, permiteți utilizarea cookie-urilor menționate, a identificatorilor de dispozitiv, balizelor web sau altor tehnologii similare. Setările pot fi modificate din browser-ul dispozitivului dumneavoastră.

În anumite scopuri, interesele legitime pot prima asupra consimțământului. Puteți citi mai multe informații în acest sens în Politica privind Confidențialitatea Datelor și Cookie.